EW2817 Weather Reports


Display with metric or nautical units.
time (UTC)temp
F
wind
direction
speed
MPH
gust
MPH
rain 1hr
in
rain 24hr
in
rain mn
in
humidity
%
barometer
mb
20260502215033 58 0 0.0 0.0 0.00 0.00 0.00 69 988.0
20260502213534 58 0 0.0 0.0 0.00 0.00 0.00 69 988.0
20260502212033 58 0 0.0 0.0 0.00 0.00 0.00 69 988.0
20260502210531 58 0 0.0 0.0 0.00 0.00 0.00 69 988.1
20260502205030 58 0 0.0 0.0 0.00 0.00 0.00 67 988.3
20260502203529 58 0 0.0 0.0 0.00 0.00 0.00 68 988.2
20260502202027 58 0 0.0 0.0 0.00 0.00 0.00 68 988.2
20260502200526 59 0 0.0 0.0 0.00 0.00 0.00 67 988.2
20260502195028 59 0 0.0 0.0 0.00 0.00 0.00 68 988.2
20260502193527 59 0 0.0 0.0 0.00 0.00 0.00 70 988.4
20260502192025 59 0 0.0 0.0 0.00 0.00 0.00 68 988.3
20260502190526 59 0 0.0 0.0 0.00 0.00 0.00 68 988.4
20260502185025 58 0 0.0 0.0 0.00 0.00 0.00 71 988.5
20260502183527 58 0 0.0 0.0 0.00 0.00 0.00 70 988.7
20260502182021 58 0 0.0 0.0 0.00 0.00 0.00 70 988.9
20260502180522 58 0 0.0 0.0 0.00 0.00 0.00 71 988.9
20260502170516 57 0 0.0 0.0 0.00 0.00 0.00 74 989.4
20260502162015 56 0 0.0 0.0 0.00 0.00 0.00 79 990.3
20260502152010 56 0 0.0 0.0 0.00 0.00 0.00 81 989.8
20260502150511 56 0 0.0 0.0 0.00 0.00 0.00 79 990.3
20260502130500 53 0 0.0 0.0 0.00 0.00 0.00 86 989.5
20260502121958 52 0 0.0 0.0 0.00 0.00 0.00 89 989.4
20260502120458 52 0 0.0 0.0 0.00 0.00 0.00 90 989.3
20260502114956 52 0 0.0 0.0 0.00 0.00 0.00 91 989.3
20260502111956 52 0 0.0 0.0 0.00 0.00 0.00 92 989.2
20260502110456 52 0 0.0 0.0 0.00 0.00 0.00 92 989.4
20260502103455 52 0 0.0 0.0 0.00 0.00 0.00 92 989.4
20260502100453 52 0 0.0 0.0 0.00 0.00 0.00 92 989.7
20260502090451 52 0 0.0 0.0 0.00 0.00 0.00 93 989.3
20260502070449 52 0 0.0 0.0 0.00 0.00 0.00 91 988.7
20260502063449 53 0 0.0 0.0 0.00 0.00 0.00 91 988.8
20260502061949 53 0 0.0 0.0 0.00 0.00 0.00 91 988.8
20260502060449 52 0 0.0 0.0 0.00 0.00 0.00 91 988.6
20260502053443 53 0 0.0 0.0 0.00 0.00 0.00 91 989.0
20260502051941 53 0 0.0 0.0 0.00 0.00 0.00 91 988.9
20260502050439 52 0 0.0 0.0 0.00 0.00 0.00 91 989.1
20260502044939 52 0 0.0 0.0 0.00 0.00 0.00 90 989.2
20260502043437 53 0 0.0 0.0 0.00 0.00 0.00 90 989.3
20260502041937 53 0 0.0 0.0 0.00 0.00 0.00 89 989.3
20260502034934 53 0 0.0 0.0 0.00 0.00 0.00 88 989.5
20260502033434 53 0 0.0 0.0 0.00 0.00 0.00 88 989.7
20260502031935 53 0 0.0 0.0 0.00 0.00 0.00 88 989.5
20260502024928 54 0 0.0 0.0 0.00 0.00 0.00 86 989.6
20260502023430 54 0 0.0 0.0 0.00 0.00 0.00 85 989.6
20260502021926 55 0 0.0 0.0 0.00 0.00 0.00 84 989.6
20260502014922 55 0 0.0 0.0 0.00 0.00 0.00 83 989.6
20260502013422 55 0 0.0 0.0 0.00 0.00 0.00 82 989.5
20260502011920 56 0 0.0 0.0 0.00 0.00 0.00 81 989.5
20260502010420 56 0 0.0 0.0 0.00 0.00 0.00 81 989.4
20260502004916 56 0 0.0 0.0 0.00 0.00 0.00 79 989.2
20260502001914 57 0 0.0 0.0 0.00 0.00 0.00 78 988.8
20260502000412 58 0 0.0 0.0 0.00 0.00 0.00 78 988.7
20260501234911 58 0 0.0 0.0 0.00 0.00 0.00 77 988.7
20260501233411 58 0 0.0 0.0 0.00 0.00 0.00 75 988.9
20260501231911 59 0 0.0 0.0 0.00 0.00 0.00 74 988.7
20260501230411 59 0 0.0 0.0 0.00 0.00 0.00 73 988.8
20260501224910 59 0 0.0 0.0 0.00 0.00 0.00 71 988.8
20260501223407 60 0 0.0 0.0 0.00 0.00 0.00 68 988.9
20260501221905 61 0 0.0 0.0 0.00 0.00 0.00 66 988.7
20260501220405 62 0 0.0 0.0 0.00 0.00 0.00 67 988.8